星链-36538(STARLINK-36538)

导读

STARLINK-36538是美国太空探索技术公司(SpaceX)星链(Starlink)星座的卫星,于2026年1月18日成功发射。作为Starlink低轨互联网星座的组成部分,它将和其他星链卫星组网,为全球范围内用户提供高速低延迟的宽带互联网服务,进一步扩充星链星座的服务覆盖范围与容量。

基本信息
目录编号:
67512
目录名称:
STARLINK-36538
国际标识:
2026-012V
轨道中心:
EARTH
卫星名称:
星链-36538
卫星全名:
星链-36538(STARLINK-36538)
卫星状态:
在轨 (已飞行229 天)
发射日期:
2026-01-18 UTC
国别 :
美国 (US)
星等 :
--
轨道信息
数据来源 国际轨道数据
星历时间: 2026-09-04T00:49:33+0800
23小时前
查看轨道信息
半长轴: 6861.105km
偏心率: 0.0001307
轨道倾角: 43.003°
近地点辐角 263.355°
升交点赤经 29.324°
平近点角 96.715°
近地点: 482.071km
远地点: 483.865km
周期: 94.265分钟
每日圈数: 15.276071
详细信息
固有亮度:
5
最大亮度:
2.5
卫星平台:
Starlink V1.0
覆盖范围:
全球
运营商:
太空探索技术公司
运营商所在国:
美国
制造商(研发单位):
太空探索技术公司
制造商所在国:
美国
使用方式:
暂无
卫星简介
Starlink 计划是 SpaceX 推出的全球卫星互联网项目,通过发射低轨道卫星,为全球尤其是偏远地区提供高速、低延迟的互联网服务。自 2019 年起,Starlink 已部署数千颗卫星,旨在缩小全球数字鸿沟,推动互联网普及。该项目还为军事、航空等行业提供通信支持,带来广泛经济效益。
2D轨道图
3D轨道图
轨道高度分析图
轨道倾角分析图
轨道综合分析图
查看轨道综合分析图
交会数据列表
事件ID 空间交会对象 最接近时刻(TCA) 交会距离 交会风险概率(CRP) 交会风险指数(CRI) 操作
CDM_260906-222305-706906-751221
2026-09-06T
22:23:27+0000
0.148 km
中距离
8.991206E-4 高风险 0.94
CDM_260907-001906-185306-751221
2026-09-07T
00:19:52+0000
0.979 km
远距离
1.628629E-5 中风险 0.59
CDM_260906-054706-398806-751221
OBJECT G (63988)
2026-09-06T
05:47:00+0000
1.087 km
极远距离
1.41421E-5 中风险 0.58
CDM_260906-014605-619306-751221
HAWK-7B (56193)
2026-09-06T
01:46:32+0000
1.461 km
极远距离
6.610937E-6 低风险 0.51
CDM_260906-224506-185306-751221
2026-09-06T
22:45:43+0000
1.310 km
极远距离
5.981342E-6 低风险 0.51
CDM_260905-093006-751206-961721
2026-09-05T
09:30:56+0000
1.018 km
极远距离
5.186181E-6 低风险 0.49
CDM_260906-204905-706906-751221
2026-09-06T
20:49:18+0000
1.837 km
极远距离
2.765399E-6 低风险 0.44
CDM_260905-040106-751206-961721
2026-09-05T
04:01:09+0000
1.241 km
极远距离
2.691889E-6 低风险 0.44
CDM_260906-235705-706906-751221
2026-09-06T
23:57:37+0000
2.157 km
极远距离
1.851185E-6 低风险 0.4